Location: Ferchesar
(52.6477°N, 12.4298°E)
Time: 17:31:18
(UTC+01:00)

Vanguard 2 - Visible Passes

Search period start: 26 February 2021 00:00
Search period end: 08 March 2021 00:00
Orbit: 552 x 2938 km, 32.9° (Epoch: 25 February)

Date Brightness Start Highest point End Pass type
(mag) Time Alt. Az. Time Alt. Az. Time Alt. Az.
26 Feb 11.6 03:42:10 10° S 03:52:07 19° SE 04:02:28 10° ESE visible
26 Feb 11.4 05:47:03 10° SW 06:01:18 33° SSE 06:14:49 10° ESE visible
27 Feb 11.5 03:57:42 10° S 04:09:06 23° SSE 04:21:05 10° ESE visible
27 Feb 11.3 06:03:54 10° SW 06:18:34 35° S 06:32:27 10° ESE visible
28 Feb 11.6 02:14:56 10° SE 02:18:00 11° SE 02:21:10 10° ESE visible
28 Feb 11.4 04:13:56 10° SSW 04:26:08 27° SSE 04:39:16 10° ESE visible
28 Feb 11.3 06:20:58 10° SW 06:35:52 37° S 06:49:58 10° ESE visible
01 Mar 11.4 02:29:23 12° SSE 02:34:45 15° SE 02:42:43 10° ESE visible
01 Mar 11.3 04:30:47 11° SSW 04:43:15 31° SSE 04:57:11 10° ESE visible
02 Mar 11.3 02:46:09 16° SSE 02:51:35 19° SE 03:01:57 10° ESE visible
02 Mar 11.2 04:47:33 11° SW 05:00:26 33° SSE 05:14:56 10° ESE visible
03 Mar 11.1 03:02:52 19° S 03:08:29 23° SE 03:20:27 10° ESE visible
03 Mar 11.1 05:04:15 11° SW 05:17:40 36° SSE 05:32:31 10° ESE visible
04 Mar 11.5 01:18:08 10° SE 01:18:08 10° SE 01:18:50 10° SE visible
04 Mar 10.9 03:19:31 21° S 03:25:29 27° SSE 03:38:35 10° ESE visible
04 Mar 11.1 05:21:05 10° SW 05:34:57 37° S 05:49:59 10° ESE visible
05 Mar 11.3 01:34:45 14° SE 01:34:45 14° SE 01:41:22 10° ESE visible
05 Mar 10.8 03:36:08 23° S 03:42:34 30° SSE 03:56:27 10° ESE visible
05 Mar 11.1 05:38:21 10° WSW 05:52:14 37° S 06:07:19 10° ESE visible
06 Mar 11.1 01:51:19 18° SE 01:51:22 18° SE 02:00:36 10° ESE visible
06 Mar 10.8 03:52:42 23° SSW 03:59:43 33° SSE 04:14:09 10° ESE visible
06 Mar 11.1 05:55:45 10° WSW 06:09:33 36° S 06:24:32 10° SE visible
07 Mar 11.0 02:07:53 22° SSE 02:08:15 22° SE 02:19:04 10° ESE visible
07 Mar 10.7 04:09:15 22° SSW 04:16:57 35° SSE 04:31:42 10° ESE visible
